This is the latest recevied weather packets stored in our database for station/object KC0RPY. If no packets are shown the sender has not sent any weather packets the latest 1 day(s).
| Time | Temp. | Humidity | Pressure | Rain* | Wind** | Luminosity | Snow |
|---|---|---|---|---|---|---|---|
| 1778033327 | 8.89° C | 96% | 1013.2 hPa | 0 mm | - | 0 W/m² | - |
| 1778033025 | 8.89° C | 96% | 1013.2 hPa | 0 mm | - | 0 W/m² | - |
| 1778032722 | 8.89° C | 96% | 1013.2 hPa | 0 mm | - | 0 W/m² | - |
| 1778032419 | 8.89° C | 96% | 1013.2 hPa | 0 mm | - | 0 W/m² | - |
| 1778032116 | 8.89° C | 96% | 1013.2 hPa | 0 mm | - | 0 W/m² | - |
| 1778031813 | 8.89° C | 96% | 1012.8 hPa | 0 mm | - | 0 W/m² | - |
| 1778031207 | 8.89° C | 96% | 1012.8 hPa | 0 mm | - | 0 W/m² | - |
| 1778030903 | 8.89° C | 96% | 1012.8 hPa | 0 mm | - | 0 W/m² | - |
| 1778030601 | 8.89° C | 96% | 1012.5 hPa | 0 mm | - | 0 W/m² | - |
| 1778030298 | 9.44° C | 96% | 1012.5 hPa | 0 mm | - | 0 W/m² | - |
| 1778029994 | 8.89° C | 96% | 1012.5 hPa | 0 mm | - | 3 W/m² | - |
| 1778029692 | 9.44° C | 96% | 1012.8 hPa | 0 mm | - | 5 W/m² | - |
| 1778029390 | 9.44° C | 96% | 1012.8 hPa | 0 mm | - | 9 W/m² | - |
| 1778028783 | 8.89° C | 96% | 1012.5 hPa | 0 mm | - | 14 W/m² | - |
| 1778028479 | 9.44° C | 96% | 1012.5 hPa | 0 mm | - | 20 W/m² | - |
| 1778028177 | 8.89° C | 96% | 1012.5 hPa | 0 mm | - | 23 W/m² | - |
| 1778027873 | 9.44° C | 96% | 1012.8 hPa | 0 mm | - | 20 W/m² | - |
| 1778027266 | 8.89° C | 96% | 1012.5 hPa | 0 mm | - | 33 W/m² | - |
| 1778026962 | 8.89° C | 96% | 1012.5 hPa | 0 mm | - | 35 W/m² | - |
| 1778026658 | 8.89° C | 96% | 1012.8 hPa | 0 mm | - | 36 W/m² | - |
| 1778025447 | 9.44° C | 96% | 1012.2 hPa | 0 mm | - | 54 W/m² | - |
| 1778023630 | 8.89° C | 96% | 1012.8 hPa | 0 mm | - | 145 W/m² | - |
| 1778023024 | 8.89° C | 96% | 1012.5 hPa | 0 mm | - | 108 W/m² | - |
| 1778022421 | 8.89° C | 96% | 1012.2 hPa | 0 mm | - | 84 W/m² | - |
| 1778021510 | 8.89° C | 97% | 1012.8 hPa | 0 mm | - | 61 W/m² | - |
* Rain latest hour (hover to see other rain measurements)
** Current wind speed in m/s (hover to see current wind gust speed)